Weather History for KAPY - August, 2014

Change the Weather History Date:

Monday, August 18, 2014

  Actual Average (KLRD) Record (KLRD)
Temperature  
Mean Temperature 90 °F 89 °F  
Max Temperature 102 °F 100 °F 110 °F (1909)
Min Temperature 79 °F 77 °F 61 °F (1908)
Degree Days  
Heating Degree Days 0 0  
Month to date heating degree days 0  
Since 1 June heating degree days 0  
Since 1 July heating degree days 0  
Cooling Degree Days 26 24  
Month to date cooling degree days 432  
Year to date cooling degree days 2948  
Since 1 June cooling degree days 1805  
Growing Degree Days 40 (Base 50)    
Moisture  
Dew Point 66 °F    
Average Humidity 48    
Maximum Humidity 72    
Minimum Humidity 24    
Precipitation  
Precipitation 0.00 in 0.06 in 2.16 in (1967)
Month to date precipitation 0.79  
Year to date precipitation 11.90  
Sea Level Pressure  
Sea Level Pressure 29.86 in    
Wind  
Wind Speed 11 mph (SE)    
Max Wind Speed 17 mph    
Max Gust Speed 29 mph    
Visibility 9 miles    
Events      
T = Trace of Precipitation, MM = Missing Value Source: NWS Daily Summary

Daily Weather History Graph

Daily Weather History Graph

Search for Another Location

Airport or City:

Trip Planner

Search our weather history database for the weather conditions in past years. The results will help you decide how hot, cold, wet, or windy it might be!

Date:

Astronomy

Aug. 18, 2014 Rise Set
Actual Time 7:09 AM CDT 8:11 PM CDT
Civil Twilight 6:45 AM CDT 8:35 PM CDT
Nautical Twilight 6:17 AM CDT 9:03 PM CDT
Astronomical Twilight 5:47 AM CDT 9:33 PM CDT
Moon 1:25 AM CDT (8/18) 3:07 PM CDT (8/18)
Length of Visible Light 13h 49m
Length of Day
13h 01m
Last Quarter, 38% of the Moon is Illuminated
Aug 18
Last Quarter
Aug 25
New
Sep 2
First Quarter
Sep 8
Full
Sep 15
Last Quarter

Hourly Weather History & Observations

Time (CDT) Temp. Heat Index Dew Point Humidity Pressure Visibility Wind Dir Wind Speed Gust Speed Precip Events Conditions
12:15 AM 85.1 °F 90.8 °F 71.6 °F 64% 29.92 in 10.0 mi SE 10.4 mph 18.4 mph N/A   Clear
12:35 AM 84.6 °F 90.0 °F 71.8 °F 65% 29.91 in 10.0 mi ESE 12.7 mph 19.6 mph N/A   Clear
12:55 AM 84.4 °F 90.0 °F 71.8 °F 66% 29.91 in 10.0 mi SE 11.5 mph 17.3 mph N/A   Clear
1:15 AM 84.2 °F 89.6 °F 71.8 °F 66% 29.91 in 10.0 mi SE 12.7 mph 19.6 mph N/A   Clear
1:35 AM 83.8 °F 89.2 °F 71.8 °F 67% 29.91 in 10.0 mi SE 12.7 mph 18.4 mph N/A   Clear
1:55 AM 83.5 °F 88.8 °F 72.0 °F 68% 29.90 in 10.0 mi SE 13.8 mph 20.7 mph N/A   Clear
2:15 AM 83.3 °F 88.7 °F 72.1 °F 69% 29.90 in 10.0 mi SE 11.5 mph 18.4 mph N/A   Clear
2:35 AM 83.3 °F 88.7 °F 72.1 °F 69% 29.89 in 10.0 mi SE 12.7 mph 19.6 mph N/A   Clear
2:55 AM 82.9 °F 88.3 °F 72.3 °F 70% 29.89 in 10.0 mi SE 11.5 mph 17.3 mph N/A   Clear
3:15 AM 82.6 °F 87.8 °F 72.1 °F 71% 29.89 in 10.0 mi SE 11.5 mph 16.1 mph N/A   Clear
3:35 AM 82.6 °F 87.6 °F 72.0 °F 70% 29.89 in 10.0 mi SE 10.4 mph - N/A   Clear
3:55 AM 82.4 °F 87.2 °F 71.6 °F 70% 29.88 in 10.0 mi SE 8.1 mph - N/A   Clear
4:15 AM 82.4 °F 87.0 °F 71.4 °F 69% 29.88 in 10.0 mi SE 6.9 mph - N/A   Clear
4:35 AM 82.4 °F 86.7 °F 70.9 °F 68% 29.89 in 10.0 mi SE 6.9 mph - N/A   Clear
4:55 AM 82.4 °F 86.5 °F 70.3 °F 67% 29.89 in 10.0 mi SSE 5.8 mph - N/A   Clear
5:15 AM 81.9 °F 85.6 °F 70.0 °F 67% 29.89 in 10.0 mi SSE 5.8 mph - N/A   Clear
5:35 AM 81.5 °F 85.1 °F 70.0 °F 68% 29.89 in 10.0 mi SE 5.8 mph - N/A   Clear
5:55 AM 81.0 °F 84.4 °F 70.0 °F 69% 29.89 in 10.0 mi SE 5.8 mph - N/A   Clear
6:15 AM 80.6 °F 83.9 °F 70.0 °F 70% 29.89 in 10.0 mi SE 6.9 mph - N/A   Clear
6:35 AM 80.2 °F 83.5 °F 70.0 °F 71% 29.89 in 10.0 mi SE 8.1 mph - N/A   Clear
6:55 AM 79.9 °F - 69.8 °F 71% 29.90 in 10.0 mi SE 5.8 mph - N/A   Clear
7:15 AM 79.7 °F - 69.8 °F 72% 29.91 in 7.0 mi SE 4.6 mph - N/A   Clear
7:35 AM 79.7 °F - 69.8 °F 72% 29.91 in 7.0 mi SE 4.6 mph - N/A   Clear
7:55 AM 80.1 °F 83.2 °F 69.8 °F 71% 29.92 in 7.0 mi SE 5.8 mph - N/A   Clear
8:15 AM 81.0 °F 84.4 °F 69.8 °F 69% 29.92 in 7.0 mi SE 8.1 mph - N/A   Clear
8:40 AM 82.2 °F 86.2 °F 70.2 °F 67% 29.93 in 7.0 mi SSE 10.4 mph 18.4 mph N/A   Clear
8:55 AM 82.8 °F 86.7 °F 70.0 °F 65% 29.93 in 7.0 mi SSE 12.7 mph 16.1 mph N/A   Clear
9:15 AM 83.8 °F 88.1 °F 69.8 °F 63% 29.93 in 7.0 mi SSE 10.4 mph 17.3 mph N/A   Clear
9:35 AM 85.5 °F 89.4 °F 69.3 °F 58% 29.93 in 7.0 mi SSE 11.5 mph 17.3 mph N/A   Clear
9:55 AM 86.7 °F 90.6 °F 68.9 °F 55% 29.93 in 7.0 mi SSE 10.4 mph - N/A   Clear
10:15 AM 87.6 °F 91.1 °F 68.2 °F 52% 29.93 in 7.0 mi SSE 10.4 mph 17.3 mph N/A   Clear
10:35 AM 87.8 °F 91.4 °F 68.0 °F 52% 29.92 in 7.0 mi SSE 9.2 mph - N/A   Clear
10:55 AM 89.6 °F 93.0 °F 67.5 °F 48% 29.92 in 7.0 mi SE 10.4 mph 17.3 mph N/A   Clear
11:15 AM 90.7 °F 93.6 °F 66.4 °F 45% 29.92 in 7.0 mi SE 12.7 mph 17.3 mph N/A   Clear
11:35 AM 92.8 °F 95.6 °F 66.2 °F 41% 29.91 in 7.0 mi SSE 12.7 mph 19.6 mph N/A   Clear
11:55 AM 95.0 °F 97.9 °F 65.5 °F 38% 29.91 in 7.0 mi SE 12.7 mph 17.3 mph N/A   Clear
12:15 PM 93.4 °F 95.2 °F 64.2 °F 38% 29.91 in 7.0 mi SE 13.8 mph 21.9 mph N/A   Clear
12:35 PM 95.5 °F 97.4 °F 63.9 °F 35% 29.90 in 7.0 mi SE 8.1 mph 20.7 mph N/A   Clear
12:55 PM 97.3 °F 98.9 °F 62.8 °F 32% 29.89 in 7.0 mi SE 12.7 mph 24.2 mph N/A   Clear
1:15 PM 97.3 °F 99.4 °F 63.5 °F 33% 29.88 in 7.0 mi SE 17.3 mph 24.2 mph N/A   Clear
1:35 PM 98.4 °F 99.7 °F 62.2 °F 30% 29.87 in 7.0 mi SSE 15.0 mph 23.0 mph N/A   Clear
1:55 PM 98.8 °F 99.7 °F 61.7 °F 29% 29.85 in 7.0 mi SSE 17.3 mph 21.9 mph N/A   Clear
2:15 PM 99.3 °F 100.6 °F 61.5 °F 29% 29.85 in 10.0 mi SSE 13.8 mph 23.0 mph N/A   Clear
2:35 PM 101.3 °F 102.7 °F 62.1 °F 27% 29.84 in 10.0 mi SE 13.8 mph 21.9 mph N/A   Clear
2:55 PM 100.9 °F 101.6 °F 60.6 °F 26% 29.83 in 10.0 mi SSE 11.5 mph 23.0 mph N/A   Clear
3:15 PM 101.8 °F 103.0 °F 61.0 °F 26% 29.82 in 7.0 mi SSE 15.0 mph 26.5 mph N/A   Clear
3:35 PM 101.8 °F 103.0 °F 60.8 °F 26% 29.81 in 10.0 mi SE 13.8 mph 23.0 mph N/A   Clear
3:55 PM 101.3 °F 102.2 °F 60.8 °F 26% 29.80 in 10.0 mi SSE 16.1 mph 21.9 mph N/A   Scattered Clouds
4:15 PM 101.5 °F 101.9 °F 60.1 °F 25% 29.79 in 10.0 mi South 12.7 mph 21.9 mph N/A   Scattered Clouds
4:35 PM 101.5 °F 101.9 °F 59.5 °F 25% 29.78 in 7.0 mi SSE 16.1 mph 24.2 mph N/A   Clear
4:55 PM 101.3 °F 101.6 °F 59.0 °F 25% 29.77 in 10.0 mi SSE 11.5 mph 20.7 mph N/A   Clear
5:15 PM 102.2 °F 102.4 °F 58.8 °F 24% 29.76 in 10.0 mi South 13.8 mph 21.9 mph N/A   Clear
5:35 PM 101.7 °F 102.2 °F 59.2 °F 25% 29.76 in 7.0 mi SSE 13.8 mph 27.6 mph N/A   Clear
5:55 PM 102.4 °F 102.7 °F 59.2 °F 24% 29.75 in 7.0 mi SE 13.8 mph 25.3 mph N/A   Clear
6:15 PM 101.5 °F 101.3 °F 58.8 °F 24% 29.74 in 10.0 mi SE 13.8 mph 20.7 mph N/A   Clear
6:35 PM 100.9 °F 101.6 °F 60.1 °F 26% 29.75 in 10.0 mi SE 13.8 mph 23.0 mph N/A   Clear
6:55 PM 99.1 °F 101.4 °F 63.3 °F 31% 29.76 in 7.0 mi SE 16.1 mph 28.8 mph N/A   Scattered Clouds
7:15 PM 96.4 °F 97.9 °F 62.8 °F 33% 29.77 in 7.0 mi SE 15.0 mph 23.0 mph N/A   Overcast
7:35 PM 95.4 °F 95.7 °F 60.8 °F 32% 29.77 in 7.0 mi ESE 15.0 mph 26.5 mph N/A   Scattered Clouds
7:55 PM 94.6 °F 94.3 °F 60.1 °F 31% 29.78 in 7.0 mi SE 15.0 mph 21.9 mph N/A   Clear
8:15 PM 93.9 °F 93.6 °F 59.5 °F 32% 29.79 in 7.0 mi SE 12.7 mph 24.2 mph N/A   Clear
8:35 PM 92.7 °F 92.5 °F 60.8 °F 34% 29.80 in 10.0 mi SE 12.7 mph 20.7 mph N/A   Clear
8:55 PM 92.3 °F 92.3 °F 60.8 °F 35% 29.82 in 10.0 mi SE 8.1 mph 16.1 mph N/A   Clear
9:15 PM 91.4 °F 91.0 °F 60.3 °F 35% 29.83 in 10.0 mi SE 12.7 mph 17.3 mph N/A   Clear
9:35 PM 90.9 °F 90.9 °F 61.0 °F 37% 29.83 in 10.0 mi SE 11.5 mph 20.7 mph N/A   Clear
9:55 PM 90.3 °F 90.2 °F 60.8 °F 37% 29.84 in 10.0 mi SE 8.1 mph 18.4 mph N/A   Clear
10:15 PM 89.6 °F 89.5 °F 61.0 °F 38% 29.84 in 10.0 mi SE 9.2 mph 16.1 mph N/A   Clear
10:35 PM 89.1 °F 89.3 °F 61.5 °F 40% 29.85 in 10.0 mi SE 10.4 mph 17.3 mph N/A   Clear
11:15 PM 88.0 °F 88.1 °F 61.9 °F 41% 29.85 in 10.0 mi SE 9.2 mph - N/A   Clear
11:55 PM 86.9 °F 87.2 °F 61.7 °F 43% 29.84 in 10.0 mi SE 9.2 mph - N/A   Clear